sat.trackr.live / text

‹ back to catalog

STARLINK-6230

NORAD 57228 · 2023-094L

PAYLOAD ACTIVE UNKNOWN

§ Identity

Operator
Country
US
Launch date
2023-07-07
Launch site
AFWTR
Launch vehicle
Mass (kg)
RCS (m²)

Purposes: comms

External: N2YO · Heavens-Above · Gunter

§ Orbital elements

Epoch: 2026-05-24T21:14:01.491072Z

Period
94.27 min
Inclination
43.0056°
Eccentricity
0.0001642
Mean motion
15.27578455 rev/d
Perigee alt
481.9 km
Apogee alt
484.2 km
Semi-major
6,861.2 km
B*
1.9407e-5
RAAN
319.9709°
Arg perigee
261.6194°
Mean anomaly
98.4471°
Rev number
15,877

§ Raw data

STARLINK-62301 57228U 23094L   26144.88473948  .00000272  00000+0  19407-4 0  99952 57228  43.0056 319.9709 0001642 261.6194  98.4471 15.27578455158774

JSON: /api/v1/satellites/57228 · /tle

For live sub-satellite position, see the globe view (requires WebGL).

§ Visibility from observer

Set your observer location to see the next 7 days of passes ≥ 10°. The values pass through the URL so the page stays shareable.

No JS? Fill the form by hand. The geolocation button needs JavaScript.